• In Kazakhstan
  • List of Countries
  • For 7 days
  • Water Temperature
  • Satellite Maps
  • Weather Map
  • News
  • Weather Widgets
  • user-avatar
    Login

    Hourly Weather Andora

    Today, 25 March, Monday

    Time Temperature Precipitation Wind Pressure Humidity
    00:00 +3°C° 0 mm 1 mps 625 mmHg 81%
    01:00 +3°C° 0 mm 1 mps 625 mmHg 79%
    02:00 +1°C° 0 mm 2 mps 624 mmHg 77%
    03:00 +1°C° 0 mm 2 mps 624 mmHg 75%
    04:00 +1°C° 0 mm 2 mps 624 mmHg 75%
    05:00 -1°C° 0 mm 2 mps 624 mmHg 74%
    06:00 -1°C° 0 mm 2 mps 624 mmHg 70%
    07:00 +2°C° 0 mm 2 mps 625 mmHg 63%
    08:00 +5°C° 0 mm 2 mps 626 mmHg 57%
    09:00 +7°C° 0 mm 2 mps 627 mmHg 50%
    10:00 +8°C° 0 mm 2 mps 627 mmHg 49%
    11:00 +9°C° 0 mm 2 mps 627 mmHg 48%
    12:00 +10°C° 0 mm 3 mps 627 mmHg 47%
    13:00 +9°C° 0 mm 3 mps 627 mmHg 46%
    14:00 +9°C° 0 mm 3 mps 626 mmHg 45%
    15:00 +8°C° 0 mm 4 mps 625 mmHg 44%
    16:00 +7°C° 0 mm 3 mps 625 mmHg 52%
    17:00 +3°C° 0 mm 3 mps 624 mmHg 59%
    18:00 +1°C° 0 mm 3 mps 623 mmHg 66%
    19:00 0°C° 0 mm 3 mps 623 mmHg 72%
    20:00 0°C° 0 mm 3 mps 623 mmHg 77%
    21:00 -1°C° 0 mm 3 mps 624 mmHg 83%
    22:00 -2°C° 0 mm 4 mps 624 mmHg 83%
    23:00 -2°C° 0 mm 4 mps 624 mmHg 84%

    Tomorrow, 26 March, Tuesday

    Time Temperature Precipitation Wind Pressure Humidity
    00:00 -2°C° 0 mm 4 mps 624 mmHg 85%
    01:00 -3°C° 0 mm 4 mps 624 mmHg 84%
    02:00 -2°C° 0 mm 3 mps 624 mmHg 82%
    03:00 -4°C° 0 mm 3 mps 624 mmHg 81%
    04:00 -4°C° 0 mm 3 mps 624 mmHg 77%
    05:00 -5°C° 0 mm 3 mps 624 mmHg 72%
    06:00 -6°C° 0 mm 3 mps 624 mmHg 68%
    07:00 -3°C° 0 mm 4 mps 625 mmHg 52%
    08:00 -1°C° 0 mm 4 mps 626 mmHg 37%
    09:00 +1°C° 0 mm 4 mps 627 mmHg 22%
    10:00 +3°C° 0 mm 4 mps 627 mmHg 20%
    11:00 +3°C° 0 mm 5 mps 627 mmHg 18%
    12:00 +5°C° 0 mm 5 mps 627 mmHg 16%
    13:00 +5°C° 0 mm 5 mps 627 mmHg 20%
    14:00 +5°C° 0 mm 5 mps 626 mmHg 23%
    15:00 +3°C° 0 mm 5 mps 626 mmHg 26%
    16:00 +3°C° 0 mm 4 mps 625 mmHg 35%
    17:00 +1°C° 0 mm 3 mps 625 mmHg 44%
    18:00 -1°C° 0 mm 3 mps 624 mmHg 52%
    19:00 -2°C° 0 mm 3 mps 625 mmHg 58%
    20:00 -2°C° 0 mm 2 mps 625 mmHg 64%
    21:00 -3°C° 0 mm 2 mps 625 mmHg 70%
    22:00 -3°C° 0 mm 2 mps 625 mmHg 69%
    23:00 -3°C° 0 mm 2 mps 625 mmHg 68%

    Day after tomorrow, 27 March, Wednesday

    Time Temperature Precipitation Wind Pressure Humidity
    00:00 -3°C° 0 mm 2 mps 625 mmHg 66%
    01:00 -4°C° 0 mm 2 mps 625 mmHg 65%
    02:00 -4°C° 0 mm 2 mps 625 mmHg 63%
    03:00 -4°C° 0 mm 2 mps 625 mmHg 62%
    04:00 -4°C° 0 mm 2 mps 625 mmHg 57%
    05:00 -4°C° 0 mm 2 mps 625 mmHg 52%
    06:00 -4°C° 0 mm 2 mps 625 mmHg 47%
    07:00 -1°C° 0 mm 2 mps 626 mmHg 38%
    08:00 +3°C° 0 mm 2 mps 627 mmHg 29%
    09:00 +6°C° 0 mm 2 mps 629 mmHg 20%
    10:00 +7°C° 0 mm 2 mps 629 mmHg 20%
    11:00 +8°C° 0 mm 2 mps 629 mmHg 19%
    12:00 +9°C° 0 mm 2 mps 629 mmHg 19%
    13:00 +9°C° 0 mm 2 mps 629 mmHg 22%
    14:00 +9°C° 0 mm 2 mps 629 mmHg 25%
    15:00 +9°C° 0 mm 3 mps 628 mmHg 28%
    16:00 +6°C° 0 mm 2 mps 628 mmHg 38%
    17:00 +4°C° 0 mm 2 mps 627 mmHg 48%
    18:00 +2°C° 0 mm 2 mps 626 mmHg 58%
    19:00 +1°C° 0 mm 2 mps 626 mmHg 65%
    20:00 -1°C° 0 mm 2 mps 626 mmHg 71%
    21:00 -2°C° 0 mm 2 mps 626 mmHg 78%
    22:00 -2°C° 0 mm 2 mps 626 mmHg 77%
    23:00 -2°C° 0 mm 2 mps 626 mmHg 77%

    28 March, Thursday

    Time Temperature Precipitation Wind Pressure Humidity
    00:00 -2°C° 0 mm 2 mps 626 mmHg 77%
    01:00 -2°C° 0 mm 2 mps 626 mmHg 80%
    02:00 -2°C° 0 mm 2 mps 626 mmHg 83%
    03:00 -2°C° 0 mm 2 mps 626 mmHg 86%
    04:00 -2°C° 0 mm 2 mps 626 mmHg 85%
    05:00 -3°C° 0 mm 2 mps 627 mmHg 85%
    06:00 -3°C° 0 mm 2 mps 627 mmHg 84%
    07:00 +2°C° 0 mm 1 mps 628 mmHg 71%
    08:00 +4°C° 0 mm 1 mps 629 mmHg 58%
    09:00 +7°C° 0 mm 1 mps 630 mmHg 45%
    10:00 +8°C° 0 mm 1 mps 630 mmHg 43%
    11:00 +9°C° 0 mm 1 mps 631 mmHg 41%
    12:00 +11°C° 0 mm 1 mps 631 mmHg 38%
    13:00 +10°C° 0 mm 1 mps 630 mmHg 43%
    14:00 +9°C° 0 mm 1 mps 630 mmHg 48%
    15:00 +8°C° 0 mm 1 mps 629 mmHg 53%
    16:00 +7°C° 0.1 mm 1 mps 629 mmHg 60%
    17:00 +6°C° 0.1 mm 1 mps 628 mmHg 67%
    18:00 +3°C° 0.1 mm 0 mps 628 mmHg 74%
    19:00 +4°C° 0 mm 1 mps 628 mmHg 78%
    20:00 +3°C° 0 mm 1 mps 628 mmHg 82%
    21:00 +2°C° 0 mm 1 mps 628 mmHg 85%
    22:00 +2°C° 0 mm 1 mps 628 mmHg 86%
    23:00 +2°C° 0 mm 1 mps 628 mmHg 88%

    29 March, Friday

    Time Temperature Precipitation Wind Pressure Humidity
    00:00 +1°C° 0 mm 1 mps 628 mmHg 89%
    01:00 +1°C° 0 mm 1 mps 628 mmHg 89%
    02:00 +1°C° 0 mm 1 mps 628 mmHg 89%
    03:00 -1°C° 0 mm 0 mps 627 mmHg 90%
    04:00 0°C° 0 mm 1 mps 628 mmHg 89%
    05:00 0°C° 0 mm 1 mps 628 mmHg 88%
    06:00 0°C° 0 mm 1 mps 628 mmHg 87%
    07:00 +3°C° 0 mm 1 mps 629 mmHg 72%
    08:00 +5°C° 0 mm 1 mps 630 mmHg 58%
    09:00 +8°C° 0 mm 1 mps 631 mmHg 43%
    10:00 +8°C° 0 mm 1 mps 631 mmHg 40%
    11:00 +9°C° 0 mm 1 mps 631 mmHg 38%
    12:00 +9°C° 0 mm 2 mps 631 mmHg 36%
    13:00 +9°C° 0 mm 2 mps 631 mmHg 37%
    14:00 +8°C° 0 mm 2 mps 630 mmHg 38%
    15:00 +8°C° 0 mm 2 mps 630 mmHg 39%
    16:00 +8°C° 0 mm 1 mps 629 mmHg 44%
    17:00 +7°C° 0 mm 1 mps 629 mmHg 49%
    18:00 +5°C° 0 mm 1 mps 629 mmHg 54%
    19:00 +4°C° 0 mm 1 mps 628 mmHg 60%
    20:00 +3°C° 0 mm 1 mps 628 mmHg 65%
    21:00 +2°C° 0 mm 1 mps 628 mmHg 71%
    22:00 +1°C° 0 mm 1 mps 628 mmHg 70%
    23:00 +1°C° 0 mm 1 mps 628 mmHg 69%

    30 March, Saturday

    Time Temperature Precipitation Wind Pressure Humidity
    00:00 -2°C° 0 mm 2 mps 627 mmHg 68%
    01:00 -2°C° 0 mm 2 mps 627 mmHg 65%
    02:00 -2°C° 0 mm 2 mps 627 mmHg 61%
    03:00 -2°C° 0 mm 2 mps 627 mmHg 58%
    04:00 -2°C° 0 mm 2 mps 627 mmHg 58%
    05:00 -2°C° 0 mm 2 mps 627 mmHg 59%
    06:00 0°C° 0 mm 1 mps 626 mmHg 60%
    07:00 +1°C° 0 mm 2 mps 627 mmHg 50%
    08:00 +4°C° 0 mm 2 mps 628 mmHg 41%
    09:00 +6°C° 0 mm 2 mps 629 mmHg 32%
    10:00 +7°C° 0 mm 2 mps 629 mmHg 30%
    11:00 +8°C° 0 mm 2 mps 629 mmHg 28%
    12:00 +9°C° 0 mm 2 mps 629 mmHg 26%
    13:00 +9°C° 0 mm 2 mps 629 mmHg 27%
    14:00 +9°C° 0 mm 2 mps 628 mmHg 29%
    15:00 +9°C° 0 mm 2 mps 628 mmHg 30%
    16:00 +7°C° 0 mm 2 mps 627 mmHg 39%
    17:00 +5°C° 0 mm 2 mps 626 mmHg 47%
    18:00 +4°C° 0 mm 2 mps 625 mmHg 56%
    19:00 +3°C° 0 mm 1 mps 625 mmHg 63%
    20:00 +2°C° 0 mm 1 mps 625 mmHg 69%
    21:00 +1°C° 0 mm 1 mps 625 mmHg 76%
    22:00 +1°C° 0 mm 1 mps 625 mmHg 78%
    23:00 0°C° 0 mm 1 mps 624 mmHg 79%
    Show more